Wichita Jabara, KS

5:23 PM CST on November 22, 2017 (GMT -0600)
Col Jabara

Weather History for KAAO - May, 2014

Change the Weather History Date:

Sunday, May 4, 2014

  Actual Average (KIAB) Record (KIAB)
Temperature  
Mean Temperature 81 °F -  
Max Temperature 100 °F 72 °F 101 °F (2014)
Min Temperature 62 °F 51 °F 39 °F (2005)
Cooling Degree Days 16    
Growing Degree Days 31 (Base 50)    
Moisture  
Dew Point 36 °F    
Average Humidity 23    
Maximum Humidity 44    
Minimum Humidity 9    
Precipitation  
Precipitation 0.00 in - - ()
Sea Level Pressure  
Sea Level Pressure 29.71 in    
Wind  
Wind Speed 18 mph (SSW)    
Max Wind Speed 30 mph    
Max Gust Speed 40 mph    
Visibility 10 miles    
Events      
Averages and records for this station are not official NWS values.
T = Trace of Precipitation, MM = Missing Value Source: NWS Daily Summary

Daily Weather History Graph

Daily Weather History Graph

Search for Another Location

Airport or City:

Trip Planner

Search our weather history database for the weather conditions in past years. The results will help you decide how hot, cold, wet, or windy it might be!

Date:

Astronomy

May. 04, 2014 Rise Set
Actual Time 6:29 AM CDT 8:22 PM CDT
Civil Twilight 6:01 AM CDT 8:50 PM CDT
Nautical Twilight 5:26 AM CDT 9:25 PM CDT
Astronomical Twilight 4:49 AM CDT 10:02 PM CDT
Moon 10:55 AM CDT (5/4) 12:27 AM CDT (5/4)
Length of Visible Light 14h 49m
Length of Day
13h 52m
Waxing Crescent, 28% of the Moon is Illuminated
May 4
Waxing Crescent
May 6
First Quarter
May 14
Full
May 21
Last Quarter
May 28
New

Hourly Weather History & Observations

Time (CDT) Temp. Dew Point Humidity Pressure Visibility Wind Dir Wind Speed Gust Speed Precip Events Conditions
12:54 AM 72.0 °F 35.1 °F 26% 29.82 in 10.0 mi South 18.4 mph 25.3 mph N/A   Clear
1:54 AM 71.1 °F 36.0 °F 28% 29.82 in 10.0 mi SSW 20.7 mph 25.3 mph N/A   Clear
2:54 AM 69.1 °F 36.0 °F 30% 29.81 in 10.0 mi South 16.1 mph - N/A   Clear
3:54 AM 64.9 °F 37.0 °F 36% 29.80 in 10.0 mi South 13.8 mph - N/A   Clear
4:54 AM 63.0 °F 37.9 °F 40% 29.78 in 10.0 mi South 13.8 mph - N/A   Clear
5:54 AM 62.1 °F 39.0 °F 43% 29.76 in 10.0 mi South 15.0 mph - N/A   Clear
6:54 AM 62.1 °F 39.9 °F 44% 29.76 in 10.0 mi South 13.8 mph - N/A   Clear
7:54 AM 64.9 °F 41.0 °F 42% 29.76 in 10.0 mi South 15.0 mph 24.2 mph N/A   Clear
8:54 AM 69.1 °F 41.0 °F 36% 29.76 in 10.0 mi SSW 17.3 mph - N/A   Clear
9:54 AM 75.0 °F 39.9 °F 28% 29.75 in 10.0 mi SSW 17.3 mph - N/A   Clear
10:54 AM 81.0 °F 39.0 °F 22% 29.75 in 10.0 mi SSW 13.8 mph - N/A   Clear
11:54 AM 84.9 °F 39.0 °F 20% 29.75 in 10.0 mi SW 12.7 mph 20.7 mph N/A   Clear
12:54 PM 89.1 °F 39.0 °F 17% 29.72 in 10.0 mi SSW 13.8 mph - N/A   Clear
1:54 PM 93.9 °F 39.0 °F 15% 29.69 in 10.0 mi South 17.3 mph 26.5 mph N/A   Clear
2:54 PM 99.0 °F 36.0 °F 11% 29.65 in 10.0 mi South 21.9 mph 31.1 mph N/A   Clear
3:54 PM 100.0 °F 33.1 °F 10% 29.63 in 10.0 mi SW 18.4 mph 33.4 mph N/A   Clear
4:54 PM 100.0 °F 30.9 °F 9% 29.60 in 10.0 mi SSW 29.9 mph 40.3 mph N/A   Clear
5:54 PM 98.1 °F 30.9 °F 9% 29.60 in 10.0 mi SSW 24.2 mph 40.3 mph N/A   Clear
6:54 PM 95.0 °F 30.0 °F 10% 29.60 in 10.0 mi SSW 28.8 mph 35.7 mph N/A   Clear
7:54 PM 90.0 °F 30.9 °F 12% 29.61 in 10.0 mi South 19.6 mph 28.8 mph N/A   Clear
8:54 PM 86.0 °F 33.1 °F 15% 29.62 in 10.0 mi South 17.3 mph 26.5 mph N/A   Clear
9:54 PM 84.9 °F 30.9 °F 14% 29.63 in 10.0 mi South 18.4 mph 27.6 mph N/A   Clear
11:54 PM 80.1 °F 34.0 °F 19% 29.65 in 10.0 mi South 18.4 mph 29.9 mph N/A   Clear